[[{"header":{"parameterUnit":"m.s-1","parameterCategory":1,"la1":30.2992,"la2":30.254,"lo1":-89.0895,"lo2":-89.0443,"dy":0.0025,"dx":0.0025,"nx":19,"ny":19,"refTime":"2026-03-27T21:00:00:Z","depth":0,"parameterNumber":2,"parameterNumberName":"U-component_of_WINDS"},"data":[0,0,0,0.4456,0.4455,0.4453,0.4453,0.4421,0.442,0,0,0,0,0,0,0,0,0,0,0,0.444,0.4439,0.4456,0.4455,0.4453,0.4453,0.4421,0.442,0,0,0,0,0,0,0,0,0,0,0,0.444,0.4439,0.4438,0.4455,0.4453,0.4453,0.4421,0.4433,0,0,0,0,0,0,0,0,0,0,0.444,0.4409,0.4439,0.4438,0.4455,0.4453,0.4453,0.4434,0.4432,0.441,0,0.4386,0,0.4402,0.4416,0.4416,0,0,0,0.4468,0.441,0.4425,0.4438,0.4455,0.4453,0.4458,0.4433,0.4431,0.4407,0.4386,0.4385,0.4402,0.4416,0.4416,0.4247,0.4245,0,0,0.4468,0.443,0.4427,0.4423,0.4423,0.4457,0.4457,0.4433,0.4406,0.4386,0.4385,0.4401,0.4415,0.4415,0.4248,0.4246,0,0,0,0.446,0.4429,0.4446,0.4424,0.4425,0.4457,0.4457,0.4407,0.4416,0.4385,0.4401,0.4415,0.4414,0.4249,0.4247,0.4143,0,0,0,0.4461,0.4425,0.4445,0.4422,0.4425,0.4417,0.4432,0.4418,0.4416,0.4401,0.4415,0.4414,0.4251,0.4248,0.4149,0.4099,0,0,0,0.4446,0.4424,0.4418,0.442,0.4417,0.4418,0.4425,0.4418,0.4425,0.4416,0.4414,0.4252,0.4249,0.4154,0.4108,0.4042,0,0,0,0.4418,0.4324,0.4415,0.4316,0.4417,0.4354,0.4426,0.4381,0.436,0.4415,0.4251,0.4248,0.4156,0.4114,0.4048,0.3979,0.3947,0,0,0.4278,0.4306,0.4251,0.4332,0.4243,0.4357,0.4253,0.427,0.4303,0.4263,0.426,0.4147,0.4109,0.4043,0.3786,0.376,0,0,0,0.4193,0.4153,0.4138,0.4117,0.4129,0.4134,0.4171,0.4178,0.4146,0.4275,0.4108,0.4086,0.4049,0.4018,0.3996,0.3966,0.4232,0.4232,0.4233,0.3939,0.3988,0.39,0.3948,0.3927,0.3967,0.3955,0.397,0.4025,0.3984,0.3972,0.381,0.3772,0.3756,0.3724,0.3941,0.3941,0.3941,0.394,0.3737,0.3687,0.3763,0.3705,0.3757,0.3708,0.3743,0.3784,0.3745,0.3823,0.3793,0.3872,0.3726,0.3701,0.3933,0.3934,0.3935,0.3936,0.3936,0.3574,0.3558,0.3569,0.3545,0.352,0.3573,0.3533,0.3582,0.3628,0.3599,0.359,0.3592,0.3599,0.3592,0.3591,0.3591,0.359,0.359,0.3589,0.34,0.3415,0.3376,0.3381,0.3374,0.3372,0.3412,0.3406,0.3413,0.3452,0.3452,0.3509,0.3704,0.375,0.3581,0.3582,0.3583,0.3584,0.3585,0.3173,0.3233,0.3171,0.3164,0.3175,0.3147,0.3211,0.3196,0.3199,0.3177,0.3242,0.3378,0.341,0.3427,0.3466,0.3233,0.3233,0.3233,0.3233,0.3034,0.3056,0.3004,0.299,0.2983,0.3035,0.2963,0.2993,0.3033,0.3038,0.3079,0.3136,0.3152,0.3173,0.3196,0.3233,0.2946,0.2946,0.2946,0.2896,0.292,0.2849,0.2891,0.2903,0.2911,0.2845,0.2825,0.2883,0.2935,0.3042,0.3054,0.3146,0.3174,0.3225,0.326,0.3329,0,0]},{"header":{"parameterUnit":"m.s-1","parameterCategory":1,"la1":30.2992,"la2":30.254,"lo1":-89.0895,"lo2":-89.0443,"dy":0.0025,"dx":0.0025,"nx":19,"ny":19,"refTime":"2026-03-27T21:00:00:Z","depth":0,"parameterNumber":3,"parameterNumberName":"V-component_of_WINDS"},"data":[0,0,0,1.8017,1.8017,1.8017,1.8017,1.8014,1.8014,0,0,0,0,0,0,0,0,0,0,0,1.8018,1.8018,1.8017,1.8017,1.8017,1.8017,1.8014,1.8014,0,0,0,0,0,0,0,0,0,0,0,1.8018,1.8018,1.8018,1.8017,1.8017,1.8017,1.8014,1.8015,0,0,0,0,0,0,0,0,0,0,1.8015,1.8018,1.8018,1.8018,1.8017,1.8017,1.8017,1.8015,1.8015,1.8014,0,1.8016,0,1.8015,1.8014,1.8014,0,0,0,1.8015,1.8018,1.8017,1.8018,1.8017,1.8017,1.8016,1.8015,1.8015,1.8014,1.8016,1.8016,1.8015,1.8014,1.8014,1.8019,1.8019,0,0,1.8015,1.8018,1.8017,1.8017,1.802,1.8016,1.8017,1.8015,1.8016,1.8016,1.8016,1.8015,1.8014,1.8014,1.8019,1.8019,0,0,0,1.8016,1.8018,1.8017,1.8017,1.8017,1.8017,1.8017,1.8017,1.8016,1.8016,1.8015,1.8014,1.8014,1.8019,1.8019,1.8026,0,0,0,1.8016,1.8019,1.8017,1.8019,1.8018,1.8018,1.8019,1.8016,1.8016,1.8015,1.8014,1.8014,1.8019,1.8019,1.8026,1.8029,0,0,0,1.8017,1.8019,1.802,1.8019,1.802,1.8018,1.8017,1.8016,1.8015,1.8014,1.8014,1.8019,1.8019,1.8025,1.8028,1.8029,0,0,0,1.8019,1.8027,1.802,1.8027,1.802,1.8023,1.8017,1.8019,1.8019,1.8014,1.8019,1.8019,1.8025,1.8028,1.8029,1.8031,1.8032,0,0,1.803,1.8028,1.8032,1.8026,1.8031,1.8022,1.8027,1.8024,1.802,1.8019,1.8019,1.8026,1.8028,1.8029,1.8039,1.8041,0,0,0,1.8037,1.8039,1.804,1.804,1.8038,1.8035,1.8031,1.8029,1.8027,1.8021,1.8027,1.8028,1.8029,1.8029,1.803,1.8029,1.802,1.802,1.802,1.8057,1.8052,1.8057,1.8051,1.805,1.8044,1.8043,1.8038,1.8034,1.8035,1.8035,1.8042,1.8042,1.8043,1.8042,1.8036,1.8036,1.8036,1.8036,1.8071,1.8073,1.8065,1.8067,1.806,1.8061,1.8053,1.8049,1.8047,1.8042,1.8042,1.8038,1.8045,1.8043,1.8036,1.8036,1.8036,1.8036,1.8036,1.8083,1.8083,1.808,1.8078,1.8076,1.8068,1.8066,1.806,1.8054,1.8054,1.8051,1.8051,1.8049,1.8053,1.8053,1.8053,1.8053,1.8053,1.8053,1.8096,1.8093,1.8093,1.8089,1.8086,1.8082,1.8073,1.8069,1.8064,1.8059,1.8059,1.8052,1.8047,1.8045,1.8053,1.8053,1.8053,1.8053,1.8053,1.8111,1.8106,1.8106,1.8103,1.8096,1.8092,1.8084,1.8076,1.8072,1.807,1.8063,1.806,1.8058,1.8057,1.8055,1.8066,1.8066,1.8066,1.8066,1.812,1.8118,1.8115,1.811,1.8105,1.8096,1.8092,1.8084,1.8074,1.807,1.8068,1.8065,1.8064,1.8062,1.8061,1.8059,1.807,1.807,1.807,1.8128,1.8124,1.8124,1.8115,1.8108,1.8101,1.8096,1.8088,1.8076,1.807,1.8067,1.8066,1.8062,1.8061,1.8056,1.8055,1.8052,0,0]}]]